Location: Abuyanrin
(8.1500°N, 4.5000°E)
Time: 07:25:05
(UTC+00:00)

Daily predictions for brighter satellites

Satellite Brightness Start Highest point End
(mag) Time Altitude Azimuth Time Altitude Azimuth Time Altitude Azimuth
Abrixas rocket 3.9 18:20:33 10° N 18:22:24 16° NE 18:24:15 10° E
Cosmos 2151 4.0 18:19:39 10° SSW 18:23:44 50° W 18:27:48 10° N
CZ-4 R/B 1.4 18:23:51 10° SSE 18:27:36 53° ENE 18:31:23 10° N
MOS 1 Rocket 3.8 18:25:45 10° NNE 18:30:49 46° E 18:35:39 10° S
Cosmos 1452 Rocket 3.9 18:27:42 10° NNW 18:32:54 69° WSW 18:38:06 10° S
Milstar 3 3.9 18:28:17 10° W 18:35:15 51° SSW 18:46:34 10° SE
Meteor 2-3 Rocket 3.7 18:30:27 10° S 18:36:10 70° E 18:41:54 10° NNE
Cosmos 2369 Rocket 2.5 18:35:31 10° NNW 18:41:09 74° WSW 18:46:50 10° S
Cosmos 2218 Rocket 4.2 18:36:30 10° SSE 18:42:26 46° E 18:48:17 10° NNE
Cosmos 2263 4.2 18:37:38 10° NNW 18:43:23 76° ENE 18:49:06 10° SSE
Cosmos 1331 Rocket 4.4 18:40:54 10° N 18:45:47 42° ENE 18:50:39 10° SSE
Centaur D AC-29 2.6 18:41:32 10° SW 18:46:00 66° SE 19:05:55 10° ENE
H-2A R/B 2.9 18:42:36 10° SE 18:47:15 31° ENE 18:51:47 10° NNE
CSL-04 Debris 4.2 18:47:08 10° SSE 18:52:33 62° ENE 18:57:56 10° N
Nadezhda 3 Rocket 3.9 18:47:48 10° N 18:53:57 80° E 19:00:06 10° S
CZ-2C R/B 2.9 18:49:35 10° NNE 18:54:31 44° ESE 18:59:34 10° S
Cosmos 1328 Rocket 4.4 18:52:23 10° NNE 18:56:13 29° E 18:57:51 22° ESE
Ariane H10+ 2.5 18:54:41 10° SW 18:55:58 18° SSW 18:55:58 18° SSW
Meteor 2-12 Rocket 4.4 18:52:24 10° S 18:58:33 82° E 19:04:42 10° N
Cosmos 1656 Rocket 3.6 18:56:00 10° NNW 19:01:33 77° ENE 19:07:06 10° SSE
Cosmos 864 Rocket 4.5 18:55:58 10° S 19:02:12 67° E 19:08:28 10° N
H-2A ROCKET BODY 2.5 18:59:54 10° NW 19:03:24 68° NNE 19:10:25 22° ESE
FALCON 9 R/B 3.0 19:01:58 10° W 19:03:33 13° SW 19:04:50 10° SSW
Cosmos 1933 3.8 19:01:20 10° NNE 19:05:10 40° E 19:06:29 30° SE
Cosmos 1833 Rocket 2.7 18:59:55 10° S 19:05:20 52° ESE 19:10:44 10° NNE
Cosmos 1867 3.9 19:07:37 10° S 19:12:39 41° ESE 19:17:42 10° NE
deb Ariane 2.5 19:11:29 10° W 19:14:40 58° SSW 19:14:40 58° SSW
DMSP B5D2-2 3.9 19:11:15 10° NNE 19:16:28 76° ESE 19:21:43 10° S
Cosmos 1606 2.8 19:14:58 10° N 19:18:44 72° W 19:21:18 19° S
Ariane H10+ 4.3 19:15:12 10° WSW 19:19:47 75° S 19:34:47 21° E
Ariane H10+ 4.3 19:15:13 10° WSW 19:19:47 75° S 19:34:48 21° E
Ariane H10+ 4.3 19:15:12 10° WSW 19:19:47 75° S 19:34:48 21° E
Ariane H10+ 4.3 19:15:12 10° WSW 19:19:48 75° S 19:34:48 21° E
Cosmos 1633 4.2 19:17:26 10° SSW 19:20:42 34° W 19:23:56 10° NNW
ARIANE 5 R/B 2.2 19:04:05 10° W 19:21:10 62° S 19:22:31 41° SE
ISS -2.0 19:23:59 10° N 19:25:48 23° NNE 19:25:48 23° NNE
Cosmos 1515 Rocket 4.4 19:26:16 10° NNE 19:29:21 36° NE 19:29:21 36° NE
Cosmos 614 Rocket 4.0 19:25:53 10° SSW 19:30:57 79° WNW 19:36:05 10° N
NOSS 3-2 (A) 3.3 19:26:36 10° S 19:36:58 10° NE 19:37:03 10° NE
Yuri Rocket 4.5 19:28:22 10° W 19:32:19 32° NNW 19:34:35 19° NNE
Cosmos 1151 Rocket 3.3 19:32:53 10° NNW 19:37:06 63° W 19:38:42 36° SSW
Cosmos 1821 Rocket 3.9 19:40:40 54° E 19:40:49 54° E 19:46:44 10° NNE
IRS-1A Rocket 4.1 19:43:00 62° E 19:43:21 64° ENE 19:48:54 10° N
Meteor 1-26 Rocket 4.0 19:43:10 10° N 19:48:35 86° W 19:49:33 61° S
Cosmos 1302 Rocket 4.1 19:47:07 10° NNW 19:52:18 73° WSW 19:52:54 65° SSW
Cosmos 2082 Rocket 2.1 19:52:36 10° SSW 19:58:19 84° WNW 20:04:01 10° NNE
Ariane Rocket 3.5 20:07:49 57° WNW 20:07:49 57° WNW 20:12:21 10° NNW
ARGOS 4.4 20:10:54 29° SW 20:12:41 36° WSW 20:17:36 10° NW
USA 238 DEB 4.3 20:20:44 10° SW 20:27:02 50° WNW 20:33:23 10° N
USA 238 4.2 20:20:52 10° SW 20:27:09 51° WNW 20:33:30 10° N
CZ-3A R/B 4.4 20:24:00 10° WNW 20:45:48 37° N 20:48:05 33° NNE
